Time,TemperatureF,DewpointF,PressureIn,WindDirection,WindDirectionDegrees,WindSpeedMPH,WindSpeedGustMPH,Humidity,HourlyPrecipIn,Conditions,Clouds,dailyrainin,SoftwareType,DateUTC
2013-03-15 00:09:00,50.5,47.0,30.29,SSW,199,0.0,1.0,87,0.00,,,0.00,weatherlink.com 1.10,2013-03-15 05:09:00,
2013-03-15 00:24:00,50.1,47.0,30.28,SSW,199,0.0,1.0,88,0.00,,,0.00,weatherlink.com 1.10,2013-03-15 05:24:00,
2013-03-15 00:39:00,49.1,46.0,30.28,SSW,199,0.0,0.0,88,0.00,,,0.00,weatherlink.com 1.10,2013-03-15 05:39:00,
2013-03-15 00:54:00,49.0,46.0,30.27,SSW,199,0.0,2.0,89,0.00,,,0.00,weatherlink.com 1.10,2013-03-15 05:54:00,
2013-03-15 01:09:00,48.4,46.0,30.27,SSW,199,0.0,0.0,90,0.00,,,0.00,weatherlink.com 1.10,2013-03-15 06:09:00,
2013-03-15 01:24:00,47.6,45.0,30.26,SSW,199,0.0,0.0,90,0.00,,,0.00,weatherlink.com 1.10,2013-03-15 06:24:00,
2013-03-15 01:39:00,46.9,45.0,30.27,SSW,199,0.0,0.0,92,0.00,,,0.00,weatherlink.com 1.10,2013-03-15 06:39:00,
2013-03-15 01:54:00,47.4,46.0,30.26,SSW,199,1.0,2.0,93,0.00,,,0.00,weatherlink.com 1.10,2013-03-15 06:54:00,
2013-03-15 02:09:00,47.6,46.0,30.25,SSW,198,0.0,1.0,93,0.00,,,0.00,weatherlink.com 1.10,2013-03-15 07:09:00,
2013-03-15 02:24:00,47.6,46.0,30.24,SSW,198,0.0,2.0,93,0.00,,,0.00,weatherlink.com 1.10,2013-03-15 07:24:00,
2013-03-15 02:39:00,47.2,45.0,30.24,SSW,198,0.0,2.0,93,0.00,,,0.00,weatherlink.com 1.10,2013-03-15 07:39:00,
2013-03-15 02:54:00,47.0,45.0,30.24,SSW,198,1.0,2.0,94,0.00,,,0.00,weatherlink.com 1.10,2013-03-15 07:54:00,
2013-03-15 03:09:00,47.2,46.0,30.24,SSW,198,0.0,1.0,94,0.00,,,0.00,weatherlink.com 1.10,2013-03-15 08:09:00,
2013-03-15 03:24:00,46.1,44.0,30.24,SSW,198,0.0,0.0,93,0.00,,,0.00,weatherlink.com 1.10,2013-03-15 08:24:00,
2013-03-15 03:39:00,45.2,44.0,30.24,SSW,198,0.0,0.0,94,0.00,,,0.00,weatherlink.com 1.10,2013-03-15 08:39:00,
2013-03-15 03:54:00,45.0,43.0,30.24,SSW,198,0.0,0.0,94,0.00,,,0.00,weatherlink.com 1.10,2013-03-15 08:54:00,
2013-03-15 04:10:00,45.6,45.0,30.23,South,173,1.0,3.0,96,0.00,,,0.00,weatherlink.com 1.10,2013-03-15 09:10:00,
2013-03-15 04:25:00,45.5,44.0,30.23,South,173,0.0,0.0,95,0.00,,,0.00,weatherlink.com 1.10,2013-03-15 09:25:00,
2013-03-15 04:40:00,44.2,43.0,30.22,South,173,0.0,0.0,94,0.00,,,0.00,weatherlink.com 1.10,2013-03-15 09:40:00,
2013-03-15 04:55:00,44.1,43.0,30.22,South,173,0.0,0.0,96,0.00,,,0.00,weatherlink.com 1.10,2013-03-15 09:55:00,
2013-03-15 05:10:00,44.0,43.0,30.22,South,173,0.0,1.0,96,0.00,,,0.00,weatherlink.com 1.10,2013-03-15 10:10:00,
2013-03-15 05:25:00,44.6,44.0,30.22,South,173,0.0,1.0,97,0.00,,,0.00,weatherlink.com 1.10,2013-03-15 10:25:00,
2013-03-15 05:40:00,44.4,43.0,30.22,South,173,0.0,0.0,96,0.00,,,0.00,weatherlink.com 1.10,2013-03-15 10:40:00,
2013-03-15 05:55:00,44.1,43.0,30.23,South,173,0.0,0.0,97,0.00,,,0.00,weatherlink.com 1.10,2013-03-15 10:55:00,
2013-03-15 06:10:00,43.7,43.0,30.23,South,173,0.0,0.0,96,0.00,,,0.00,weatherlink.com 1.10,2013-03-15 11:10:00,
2013-03-15 06:25:00,43.9,43.0,30.23,South,173,0.0,1.0,97,0.00,,,0.00,weatherlink.com 1.10,2013-03-15 11:25:00,
2013-03-15 06:40:00,44.1,43.0,30.23,South,173,0.0,1.0,97,0.00,,,0.00,weatherlink.com 1.10,2013-03-15 11:40:00,
2013-03-15 06:55:00,44.0,43.0,30.24,South,173,0.0,0.0,97,0.00,,,0.00,weatherlink.com 1.10,2013-03-15 11:55:00,
2013-03-15 07:10:00,43.6,43.0,30.24,South,173,0.0,0.0,97,0.00,,,0.00,weatherlink.com 1.10,2013-03-15 12:10:00,
2013-03-15 07:25:00,43.8,43.0,30.25,South,173,0.0,0.0,97,0.00,,,0.00,weatherlink.com 1.10,2013-03-15 12:25:00,
2013-03-15 07:40:00,44.0,43.0,30.24,South,173,0.0,0.0,97,0.00,,,0.00,weatherlink.com 1.10,2013-03-15 12:40:00,
2013-03-15 07:55:00,45.3,45.0,30.24,South,173,0.0,0.0,98,0.00,,,0.00,weatherlink.com 1.10,2013-03-15 12:55:00,
2013-03-15 08:10:00,47.7,48.0,30.24,SSE,163,0.0,0.0,99,0.00,,,0.00,weatherlink.com 1.10,2013-03-15 13:10:00,
2013-03-15 08:25:00,50.7,51.0,30.25,SSE,163,0.0,0.0,99,0.00,,,0.00,weatherlink.com 1.10,2013-03-15 13:25:00,
2013-03-15 08:40:00,53.5,53.0,30.25,SSE,163,0.0,0.0,97,0.00,,,0.00,weatherlink.com 1.10,2013-03-15 13:40:00,
2013-03-15 08:55:00,55.7,54.0,30.25,SSW,194,0.0,2.0,94,0.00,,,0.00,weatherlink.com 1.10,2013-03-15 13:55:00,
2013-03-15 09:10:00,57.9,56.0,30.25,SSW,207,3.0,4.0,92,0.00,,,0.00,weatherlink.com 1.10,2013-03-15 14:10:00,
2013-03-15 09:25:00,59.8,56.0,30.25,SW,214,5.0,9.0,88,0.00,,,0.00,weatherlink.com 1.10,2013-03-15 14:25:00,
2013-03-15 09:40:00,61.7,58.0,30.25,SW,221,5.0,8.0,86,0.00,,,0.00,weatherlink.com 1.10,2013-03-15 14:40:00,
2013-03-15 09:55:00,62.6,57.0,30.26,SSW,201,4.0,8.0,83,0.00,,,0.00,weatherlink.com 1.10,2013-03-15 14:55:00,
2013-03-15 10:10:00,63.5,58.0,30.26,SSW,192,2.0,8.0,81,0.00,,,0.00,weatherlink.com 1.10,2013-03-15 15:10:00,
2013-03-15 10:25:00,64.0,57.0,30.26,South,188,4.0,7.0,79,0.00,,,0.00,weatherlink.com 1.10,2013-03-15 15:25:00,
2013-03-15 10:40:00,65.2,57.0,30.26,SSE,163,3.0,9.0,76,0.00,,,0.00,weatherlink.com 1.10,2013-03-15 15:40:00,
2013-03-15 10:55:00,66.2,58.0,30.26,SW,232,7.0,10.0,74,0.00,,,0.00,weatherlink.com 1.10,2013-03-15 15:55:00,
2013-03-15 11:10:00,66.8,55.0,30.25,SSW,201,4.0,8.0,67,0.00,,,0.00,weatherlink.com 1.10,2013-03-15 16:10:00,
2013-03-15 11:25:00,67.3,55.0,30.25,South,173,4.0,11.0,65,0.00,,,0.00,weatherlink.com 1.10,2013-03-15 16:25:00,
2013-03-15 11:41:00,68.4,56.0,30.25,South,187,6.0,10.0,65,0.00,,,0.00,weatherlink.com 1.10,2013-03-15 16:41:00,
2013-03-15 11:56:00,68.9,58.0,30.25,SW,221,4.0,13.0,68,0.00,,,0.00,weatherlink.com 1.10,2013-03-15 16:56:00,
2013-03-15 12:11:00,69.5,55.0,30.24,SW,225,5.0,13.0,60,0.00,,,0.00,weatherlink.com 1.10,2013-03-15 17:11:00,
2013-03-15 13:11:00,71.3,55.0,30.21,SSW,200,4.0,19.0,57,0.00,,,0.00,weatherlink.com 1.10,2013-03-15 18:11:00,
2013-03-15 13:41:00,72.0,54.0,30.20,SW,217,5.0,15.0,53,0.00,,,0.00,weatherlink.com 1.10,2013-03-15 18:41:00,
2013-03-15 13:56:00,72.4,53.0,30.19,SW,218,7.0,14.0,50,0.00,,,0.00,weatherlink.com 1.10,2013-03-15 18:56:00,
2013-03-15 14:26:00,72.6,52.0,30.17,SW,214,5.0,14.0,48,0.00,,,0.00,weatherlink.com 1.10,2013-03-15 19:26:00,
2013-03-15 14:41:00,73.0,47.0,30.16,SSW,203,6.0,15.0,40,0.00,,,0.00,weatherlink.com 1.10,2013-03-15 19:41:00,
2013-03-15 14:56:00,73.1,49.0,30.16,SSW,211,9.0,15.0,42,0.00,,,0.00,weatherlink.com 1.10,2013-03-15 19:56:00,
2013-03-15 15:11:00,73.0,47.0,30.15,South,169,7.0,16.0,40,0.00,,,0.00,weatherlink.com 1.10,2013-03-15 20:11:00,
2013-03-15 15:26:00,73.3,47.0,30.14,South,175,4.0,13.0,39,0.00,,,0.00,weatherlink.com 1.10,2013-03-15 20:26:00,
2013-03-15 15:41:00,73.1,50.0,30.13,SW,225,9.0,14.0,44,0.00,,,0.00,weatherlink.com 1.10,2013-03-15 20:41:00,
2013-03-15 15:56:00,72.8,48.0,30.13,SW,228,10.0,16.0,41,0.00,,,0.00,weatherlink.com 1.10,2013-03-15 20:56:00,
2013-03-15 16:11:00,72.5,49.0,30.12,South,190,7.0,18.0,44,0.00,,,0.00,weatherlink.com 1.10,2013-03-15 21:11:00,
2013-03-15 16:26:00,72.1,48.0,30.12,SW,223,11.0,19.0,43,0.00,,,0.00,weatherlink.com 1.10,2013-03-15 21:26:00,
2013-03-15 16:41:00,71.3,50.0,30.11,SW,227,8.0,18.0,48,0.00,,,0.00,weatherlink.com 1.10,2013-03-15 21:41:00,
2013-03-15 16:56:00,71.0,52.0,30.11,SW,234,7.0,17.0,52,0.00,,,0.00,weatherlink.com 1.10,2013-03-15 21:56:00,
2013-03-15 17:11:00,71.3,53.0,30.11,South,186,6.0,13.0,53,0.00,,,0.00,weatherlink.com 1.10,2013-03-15 22:11:00,
2013-03-15 17:26:00,70.3,53.0,30.11,SSW,208,11.0,16.0,54,0.00,,,0.00,weatherlink.com 1.10,2013-03-15 22:26:00,
2013-03-15 17:41:00,69.6,54.0,30.11,South,182,6.0,15.0,57,0.00,,,0.00,weatherlink.com 1.10,2013-03-15 22:41:00,
2013-03-15 17:56:00,69.1,54.0,30.11,South,182,6.0,12.0,59,0.00,,,0.00,weatherlink.com 1.10,2013-03-15 22:56:00,
2013-03-15 18:11:00,68.8,54.0,30.12,SSW,202,5.0,11.0,60,0.00,,,0.00,weatherlink.com 1.10,2013-03-15 23:11:00,
2013-03-15 18:27:00,68.0,54.0,30.12,SSW,211,5.0,11.0,62,0.00,,,0.00,weatherlink.com 1.10,2013-03-15 23:27:00,
2013-03-15 18:41:00,67.2,54.0,30.12,South,186,7.0,9.0,63,0.00,,,0.00,weatherlink.com 1.10,2013-03-15 23:41:00,
2013-03-15 18:57:00,66.3,55.0,30.11,SSW,210,6.0,8.0,66,0.00,,,0.00,weatherlink.com 1.10,2013-03-15 23:57:00,
2013-03-15 19:12:00,65.1,55.0,30.11,SW,214,4.0,9.0,69,0.00,,,0.00,weatherlink.com 1.10,2013-03-16 00:12:00,
2013-03-15 19:27:00,64.3,55.0,30.11,SSW,204,5.0,6.0,71,0.00,,,0.00,weatherlink.com 1.10,2013-03-16 00:27:00,
2013-03-15 19:42:00,63.4,55.0,30.11,South,188,5.0,6.0,74,0.00,,,0.00,weatherlink.com 1.10,2013-03-16 00:42:00,
2013-03-15 19:57:00,63.0,55.0,30.11,South,181,0.0,6.0,75,0.00,,,0.00,weatherlink.com 1.10,2013-03-16 00:57:00,
2013-03-15 20:12:00,62.3,55.0,30.12,South,186,2.0,4.0,77,0.00,,,0.00,weatherlink.com 1.10,2013-03-16 01:12:00,
2013-03-15 20:27:00,61.6,55.0,30.12,SSW,205,0.0,4.0,79,0.00,,,0.00,weatherlink.com 1.10,2013-03-16 01:27:00,
2013-03-15 20:42:00,61.4,56.0,30.12,South,186,0.0,4.0,81,0.00,,,0.00,weatherlink.com 1.10,2013-03-16 01:42:00,
2013-03-15 20:57:00,60.3,55.0,30.12,South,172,1.0,2.0,82,0.00,,,0.00,weatherlink.com 1.10,2013-03-16 01:57:00,
2013-03-15 21:12:00,59.1,54.0,30.12,South,172,0.0,0.0,83,0.00,,,0.00,weatherlink.com 1.10,2013-03-16 02:12:00,
2013-03-15 21:27:00,58.1,54.0,30.12,South,171,0.0,2.0,85,0.00,,,0.00,weatherlink.com 1.10,2013-03-16 02:27:00,
2013-03-15 21:42:00,57.3,54.0,30.13,South,171,0.0,2.0,87,0.00,,,0.00,weatherlink.com 1.10,2013-03-16 02:42:00,
2013-03-15 21:57:00,57.1,54.0,30.12,South,171,0.0,2.0,88,0.00,,,0.00,weatherlink.com 1.10,2013-03-16 02:57:00,
2013-03-15 22:12:00,56.8,53.0,30.13,South,171,0.0,2.0,88,0.00,,,0.00,weatherlink.com 1.10,2013-03-16 03:12:00,
2013-03-15 22:27:00,56.7,54.0,30.13,South,171,0.0,2.0,90,0.00,,,0.00,weatherlink.com 1.10,2013-03-16 03:27:00,
2013-03-15 22:42:00,56.6,54.0,30.12,South,171,0.0,1.0,90,0.00,,,0.00,weatherlink.com 1.10,2013-03-16 03:42:00,
2013-03-15 22:57:00,55.9,53.0,30.12,SE,130,0.0,2.0,91,0.00,,,0.00,weatherlink.com 1.10,2013-03-16 03:57:00,
2013-03-15 23:12:00,55.5,53.0,30.12,SSE,166,2.0,2.0,92,0.00,,,0.00,weatherlink.com 1.10,2013-03-16 04:12:00,
2013-03-15 23:27:00,55.4,54.0,30.11,SSE,161,2.0,2.0,94,0.00,,,0.00,weatherlink.com 1.10,2013-03-16 04:27:00,
2013-03-15 23:42:00,55.7,54.0,30.11,South,170,1.0,4.0,95,0.00,,,0.00,weatherlink.com 1.10,2013-03-16 04:42:00,
2013-03-15 23:57:00,55.7,54.0,30.10,South,169,2.0,3.0,95,0.00,,,0.00,weatherlink.com 1.10,2013-03-16 04:57:00,